Accueil
METAR-TAF:

METAR-TAF

Aéroports :

Meiringen, Suisse

latitude: 46-44-25N, longitude: 8-06-36E, altitude: 577 m

Observation

Le bulletin a été fait il y a 40 minutes, à 23:20 UTC
Vent calme
Température 15°C
Humidité 82%
Pression 1022 hPa
Visibilité 10 km ou plus
Quelques nuages à une hauteur de 7400 ft

METAR: LSMM 172320Z AUTO 00000KT 9999NDV FEW074 15/12 Q1022 RMK

Heure: 02:00 (00:00 UTC)


TAF: absent

Observations et prévisions météorologiques de plus de 4000 aéroports (messages METAR et TAF).

Les stations disponibles sont représentées par des disques jaunes et rouges sur la carte.

Passer la souris dessus pour voir le nom de la station.

Cliquer dessus pour voir les observations et prévisions météorologiques.

Pour changer de carte: cliquez sur les boutons verts avec une croix noire pour zoomer, sur le bouton vert avec un tiret pour effectuer un zoom arrière, ou sur les flèches vertes pour les cartes adjacentes.


METAR-TAF: